Tracking 25710 objects as of 6-Jul-2022
HD Live streaming from Space Station
objects crossing your sky now

USA 236

Track USA 236 now!
USA 236 is classified as:


NORAD ID: 38466
Int'l Code: 2012-033A
Perigee: 35,761.0 km
Apogee: 35,827.5 km
Inclination: 4.0 °
Period: 1,436.1 minutes
Semi major axis: 42165 km
RCS: Unknown
Launch date: June 20, 2012
Source: United States (US)
Launch site: AIR FORCE EASTERN TEST RANGE (AFETR)

NROL-38 (USA 236) is a classified satellite.
aabbcc
Your satellite tracking list
Your tracking list is empty




NASA's NSSDC Master Catalog

Two Line Element Set (TLE):
1 38466U 12033A   22058.91812397 0.00000000  00000-0  00000-0 0    06
2 38466   3.9720 104.2176 0007890 163.1872 196.8128  1.00270000    08
Source of the keplerian elements: McCants